SCP
0 0 0 0 0 0 0 0 0 0 0 -0 0 0 0 0 0 0 0 0 0 0 0 -0 0 0 0 0 0 0 0 0 0 -0 -0 -0 -0 0 0 0 0 0 0
0 0 0 0 0 0 0 0 0 0 -0 -0 0 0 -0 -0 0 0 0 0 0 0 0 0 0 0 -0 0 0 -0 -0 0 -0 -0 -0 -0 -0 -0 -0 0 0 0 0
0 0 0 0 0 0 0 0 0 -0 0 0 0 0 0 -0 0 0 0 0 0 0 0 0 0 0 0 -0 -0 -0 0 0 -0 -0 -0 -0 -0 -0 -0 0 -0 -0 -0
0 0 0 0 0 0 0 0 0 0 0 0 0 0 0 -0 -0 0 0 0 0 0 0 0 -0 -0 -0 -0 -0 -0 0 -0 -0 -0 -0 -0 -0 -0 -0 -0 -0 -0 -0
0 0 0 0 0 0 0 0 0 0 0 -0 -0 -0 -0 -0 0 0 0 0 0 0 0 -0 0 0 0 -0 0 0 -0 -0 -0 -0 -0 -0 -0 -0 -0 -0 -0 -0 -0
0 0 0 0 0 0 0 0 0 0 -0 0 -0 0 0 -0 0 0 0 0 0 0 0 0 0 0 0 -0 0 -0 -0 -0 -0 -0 -0 -0 -0 -0 -0 -0 -0 -0 -0
0 0 0 0 0 0 0 0 0 0 -0 0 0 0 0 -0 -0 0 0 0 0 0 0 0 0 0 0 0 -0 -0 -0 -0 -0 -0 -0 -0 -0 -0 -0 -0 -0 -0 -0
0 0 0 0 0 0 0 0 -0 -0 -0 -0 0 0 0 0 0 0 0 0 0 0 -0 0 0 0 0 0 0 -0 -0 -0 -0 -0 -0 -0 -0 -0 -0 -0 -0 -0 -0
0 0 0 0 0 0 0 0 0 0 0 -0 -0 -0 0 0 0 0 -0 -0 -0 0 0 -0 0 -0 0 0 0 0 -0 -0 -0 -0 -0 -0 -0 -0 -0 -0 -0 -0 0
0 0 0 0 0 0 0 -0 -0 0 0 0 0 -0 -0 -0 0 0 0 -0 -0 0 0 0 0 0 0 0 0 0 -0 0 -0 -0 -0 -0 -0 -0 -0 -0 -0 0 0
0 0 0 0 0 0 0 -0 0 0 0 0 0 0 0 -0 -0 -0 -0 -0 0 0 -0 0 0 0 0 0 0 0 0 0 0 0 0 -0 -0 -0 0 0 0 0 0
0 0 0 0 0 0 0 0 0 0 0 0 0 0 0 -0 -0 -0 0 -0 0 0 0 0 0 0 0 0 0 0 0 0 0 0 0 0 0 0 0 0 0 0 0
0 0 0 0 0 0 0 0 0 0 0 0 0 0 0 0 -0 -0 0 0 0 0 0 0 0 0 0 0 0 0 0 0 0 0 0 0 0 0 0 0 0 0 0
0 0 0 0 0 0 0 0 0 0 0 0 0 0 0 0 -0 0 0 0 0 0 0 0 0 0 0 0 0 0 0 0 0 0 0 0 0 0 0 0 0 0 0
0 0 0 0 0 0 0 0 0 0 0 0 0 0 0 0 0 -0 0 0 0 0 0 0 0 0 0 0 0 0 0 0 0 0 0 0 0 0 0 0 0 0 0
0 0 0 0 0 0 0 0 0 0 0 0 0 0 0 0 0 0 0 0 0 0 0 0 0 0 0 0 0 0 0 0 0 0 0 0 0 0 0 0 0 0 0
0 0 0 0 0 0 0 0 0 0 0 0 0 0 0 0 0 0 0 0 0 0 0 0 0 0 0 0 0 0 0 0 0 0 0 0 0 0 0 0 0 0 0
0 0 0 0 0 0 0 0 0 0 0 0 0 0 0 0 0 0 0 0 0 0 0 0 0 0 0 0 0 0 0 0 0 0 0 0 0 0 0 0 0 0 0
0 0 0 0 0 0 0 0 0 0 0 0 0 0 0 0 0 0 0 0 0 0 0 0 0 0 0 0 0 0 0 0 0 0 0 0 0 0 0 0 0 0 0
0 0 0 0 0 0 0 0 0 0 0 0 0 0 0 0 0 0 0 0 0 0 0 0 0 0 0 0 0 0 0 0 0 0 0 0 0 0 0 0 0 0 0
0 0 0 0 0 0 0 0 0 0 0 0 0 0 0 0 0 0 0 0 0 0 0 0 0 0 0 0 0 0 0 0 0 0 0 0 0 0 0 0 0 0 0
0 0 0 0 0 0 0 0 0 0 0 0 0 0 0 0 0 0 0 0 0 0 0 0 0 0 0 0 0 0 0 0 0 0 0 0 0 0 0 0 0 0 0
0 0 0 0 0 0 0 0 0 0 0 0 0 0 0 0 0 0 0 0 0 0 0 0 0 0 0 0 0 0 0 0 0 0 0 0 0 0 0 0 0 0 0
0 0 0 0 0 0 0 0 0 0 0 0 0 0 0 0 0 0 0 0 0 0 0 0 0 0 0 0 0 0 0 0 0 0 0 0 0 0 0 0 0 0 0
0 0 0 0 0 0 0 0 0 0 0 0 0 0 0 0 0 0 0 0 0 0 0 0 0 0 0 0 0 0 0 0 0 0 0 0 0 0 0 0 0 0 0
0 0 0 0 0 0 0 0 0 0 0 0 0 0 0 0 0 0 0 0 0 0 0 0 0 0 0 0 0 0 0 0 0 0 0 0 0 0 0 0 0 0 0
Wind_Speed_500mb
24 19 22 15 14 12 15 18 23 29 17 12 10 11 12 10 15 19 24 40 43 51 43 46 63 38 46 39 47 58 52 54 54 51 55 53 41 32 19 12 14 16 15
20 17 15 12 12 9 12 19 18 14 9 14 21 15 13 6 0 1 13 21 20 30 33 41 32 37 52 56 59 67 61 60 57 57 60 47 33 24 15 13 17 13 14
19 16 10 8 5 8 9 11 11 10 17 15 20 23 14 11 3 10 13 11 12 11 23 7 18 65 38 50 71 70 67 60 59 62 52 35 30 22 17 18 16 17 18
16 9 5 6 7 8 10 11 10 15 20 18 16 14 11 3 4 10 18 19 21 15 16 23 27 30 42 58 67 63 60 61 64 59 41 34 28 25 19 16 17 20 22
9 10 12 8 12 10 14 14 17 21 23 18 14 10 8 4 4 5 3 6 15 12 10 9 27 32 40 55 61 59 70 74 63 46 39 34 31 20 20 18 21 25 24
8 14 11 5 9 10 12 14 16 20 15 31 33 29 12 8 3 11 8 10 3 3 10 16 23 25 28 42 66 82 80 60 47 46 38 34 27 24 21 21 23 25 25
9 10 7 6 7 10 8 5 14 17 18 21 18 34 29 18 10 10 9 16 14 9 8 17 23 17 59 56 58 69 65 55 46 42 38 31 26 20 20 23 26 28 27
7 8 10 9 8 7 8 16 13 9 16 16 30 23 15 21 18 14 10 12 12 13 17 22 18 48 70 62 65 54 53 47 43 39 34 29 23 23 25 27 28 29 27
6 7 9 8 8 6 8 10 9 9 14 14 27 25 10 10 19 15 15 7 14 15 20 19 23 64 58 80 60 48 44 42 41 37 31 28 28 29 30 33 29 30 26
5 4 8 8 5 5 8 8 2 3 9 11 21 24 8 7 10 12 19 18 21 28 27 28 62 63 56 56 52 41 36 34 32 30 30 31 31 35 34 33 30 29 27
4 3 9 9 7 6 9 10 5 6 4 9 19 18 11 7 15 22 14 32 34 45 40 52 57 54 47 42 40 39 34 31 27 27 28 31 36 33 30 33 29 32 25
8 4 4 7 9 6 8 12 11 7 4 1 8 10 7 8 7 18 32 26 33 38 46 42 37 36 40 39 38 33 28 24 23 23 24 33 28 34 31 33 31 28 28
11 10 10 8 14 12 12 14 18 12 9 10 7 3 6 11 5 19 32 38 31 38 39 42 42 40 39 36 34 29 26 23 23 23 23 26 28 32 27 35 32 30 30
14 14 15 17 12 16 19 18 18 18 19 14 14 13 12 13 9 19 33 41 44 34 40 40 39 37 36 37 34 31 28 26 23 23 26 27 28 29 28 30 32 34 33
21 20 19 21 21 18 23 22 25 22 22 23 21 27 23 20 21 24 37 40 46 31 46 42 37 40 38 36 34 33 30 27 28 28 27 29 30 31 33 35 36 36 35
21 23 22 20 21 23 28 26 26 27 29 29 29 28 25 21 22 30 41 46 53 34 43 50 50 48 45 43 40 37 34 32 32 31 33 34 36 37 37 38 39 40 41
20 21 20 21 21 19 17 24 27 27 30 31 32 29 29 28 25 26 36 39 61 54 44 46 54 45 47 47 43 41 40 37 38 39 41 43 44 43 43 44 45 46 46
24 24 24 24 26 26 28 29 31 32 34 33 33 31 31 33 33 31 34 38 42 51 53 51 55 59 50 47 48 48 49 49 49 49 51 51 50 51 50 50 51 55 53
26 29 30 31 32 31 32 35 38 40 40 41 43 39 36 37 36 37 40 43 48 53 56 53 43 47 58 59 55 53 53 53 55 58 56 55 56 58 59 60 60 62 62
29 29 35 39 41 41 40 41 41 45 48 48 51 46 45 45 45 45 44 46 51 56 61 66 65 60 52 54 60 60 62 60 60 62 65 64 63 64 63 65 65 68 67
31 34 36 39 44 48 49 48 50 48 46 54 57 58 55 54 54 54 54 56 53 54 58 65 73 69 70 66 73 67 70 73 71 71 70 72 72 72 70 70 70 70 69
31 32 36 39 41 44 49 51 56 61 61 59 56 57 63 60 60 59 60 64 61 65 69 71 73 81 82 78 79 83 80 79 78 79 75 75 74 76 74 73 71 70 70
38 35 34 37 42 47 50 55 58 63 69 71 69 66 61 59 66 66 68 70 73 74 73 74 81 85 84 82 77 83 87 88 88 85 79 78 76 77 70 72 73 73 70
45 44 43 41 40 40 45 55 61 66 68 72 76 74 73 69 73 67 76 74 77 80 82 85 89 92 91 88 89 89 82 81 84 85 87 89 85 87 79 80 80 75 74
56 53 50 47 47 44 44 44 52 62 68 73 73 74 75 75 77 77 74 79 87 84 84 85 85 90 93 96 99 93 90 90 92 96 92 91 90 90 89 85 88 85 80
58 58 55 58 59 52 48 48 47 50 56 65 72 77 79 78 77 77 76 79 84 88 84 88 87 94 95 92 95 97 98 105 105 101 101 99 97 92 91 97 86 86 87
Wind_Direction_500mb
324 334 335 352 341 352 357 6 5 7 354 348 356 348 355 294 245 222 214 228 238 240 260 236 235 240 189 194 197 191 193 181 178 173 176 186 177 174 174 178 180 184 174
323 330 336 344 357 11 13 26 2 358 13 29 41 56 16 355 345 240 242 231 227 223 237 256 224 225 198 220 218 198 195 182 177 175 180 183 169 175 182 182 178 177 197
325 337 345 4 40 19 21 37 359 41 33 38 49 34 45 358 352 115 114 111 147 182 212 183 248 225 204 201 191 188 191 177 177 181 185 177 181 180 195 185 194 190 186
339 4 34 83 53 56 68 49 51 51 38 23 42 49 39 43 38 119 133 114 129 150 219 232 280 202 194 191 187 183 171 177 180 184 181 183 181 201 193 199 198 189 173
8 77 105 93 79 80 70 72 65 51 40 11 11 359 3 109 126 130 169 47 131 126 146 249 219 204 207 213 191 195 174 174 179 174 185 185 198 201 212 203 193 173 165
91 101 105 90 105 106 78 59 76 79 53 33 30 31 43 57 129 174 161 113 143 211 189 192 223 223 229 208 212 165 169 163 182 187 184 196 201 199 202 198 181 176 170
104 111 93 121 106 119 98 81 88 80 42 7 344 20 51 57 74 115 139 132 135 141 163 191 220 235 150 153 155 162 161 169 182 184 194 196 194 199 194 186 175 168 166
120 116 123 124 115 106 78 107 100 62 23 16 2 20 27 51 81 80 105 141 129 98 94 136 103 155 131 150 153 151 161 175 180 188 188 195 190 195 186 173 173 167 169
117 140 159 142 156 138 130 127 112 66 22 16 9 20 354 44 58 82 79 102 110 127 114 146 117 143 133 148 154 157 171 177 180 185 189 188 187 176 172 169 173 167 175
154 184 182 162 148 168 166 199 224 17 50 25 22 11 55 76 92 75 108 101 155 139 123 141 138 137 148 145 154 170 180 172 176 183 184 182 177 171 174 176 179 176 187
199 31 198 192 192 217 211 213 233 232 110 29 27 40 73 38 122 131 100 116 115 145 144 132 137 141 151 158 167 167 170 169 175 180 180 179 176 180 178 180 186 190 192
220 296 316 222 215 229 222 209 205 214 279 216 29 47 66 25 240 169 143 132 144 129 133 139 147 156 156 157 164 163 165 170 175 180 186 187 186 184 192 193 193 201 201
248 269 295 279 235 232 232 218 214 233 263 257 293 246 286 303 285 204 161 153 150 148 157 164 165 168 163 163 166 171 174 176 182 187 193 198 202 203 202 206 209 208 218
256 264 276 284 269 238 241 230 227 231 238 244 277 263 266 266 256 213 203 176 169 172 174 179 178 178 176 175 180 181 187 190 196 205 210 214 219 221 225 228 228 227 233
267 261 264 274 275 248 242 247 241 243 244 250 267 275 271 258 229 226 223 217 192 183 194 196 196 195 191 193 196 201 204 211 214 220 226 228 230 231 233 235 237 241 243
283 286 272 269 279 268 249 245 251 254 251 255 260 264 259 252 240 227 227 224 213 216 203 205 206 204 205 209 211 220 221 227 232 234 239 240 240 239 239 241 244 246 249
290 288 282 271 276 273 277 260 258 260 260 261 265 264 252 252 246 226 228 231 223 214 223 222 218 216 219 222 225 232 238 242 244 247 247 246 246 247 246 247 249 250 253
283 276 274 277 269 266 266 265 265 269 268 270 269 270 264 253 250 238 223 227 232 229 230 243 244 235 224 235 237 242 249 248 249 250 252 252 252 253 254 255 256 257 256
275 273 268 267 267 266 266 269 270 268 265 267 271 270 269 259 251 245 239 228 229 240 244 241 237 237 239 240 239 243 248 250 252 254 255 254 257 258 258 257 257 259 259
282 272 271 269 268 267 268 267 271 269 270 266 267 265 262 263 262 252 250 243 241 239 241 241 241 244 239 237 241 247 251 255 260 260 262 262 261 263 263 263 262 263 263
288 281 275 268 268 268 268 269 266 270 270 268 266 268 265 260 260 262 258 252 249 246 244 242 241 240 240 244 243 251 256 257 261 263 264 264 263 263 264 266 265 265 266
309 294 286 280 271 268 268 268 269 269 266 269 270 266 262 263 262 260 257 260 256 252 252 252 249 247 249 253 255 258 256 259 262 266 270 268 269 268 268 268 268 268 268
339 329 313 299 287 277 268 263 264 266 266 264 265 266 269 267 259 261 261 258 258 257 255 256 255 254 255 256 259 260 258 260 263 266 267 268 272 273 270 268 267 264 264
340 338 334 329 319 305 289 276 267 264 266 266 265 265 264 266 264 264 258 263 258 257 257 255 256 257 257 259 260 263 266 266 266 267 267 266 270 268 270 267 266 264 263
341 336 332 327 326 323 317 303 286 274 268 266 267 266 265 265 264 265 267 265 265 262 257 260 261 258 261 262 263 261 260 261 263 264 264 263 267 271 271 270 263 265 266
329 330 331 327 319 316 317 315 315 300 285 275 270 268 267 266 264 264 266 268 270 266 267 263 261 256 258 258 257 260 260 259 258 263 259 259 266 266 268 270 271 267 268
Wind_Speed_850mb
24 19 22 15 14 12 15 18 23 29 17 12 10 11 12 10 15 19 24 40 43 51 43 46 63 38 46 39 47 58 52 54 54 51 55 53 41 32 19 12 14 16 15
20 17 15 12 12 9 12 19 18 14 9 14 21 15 13 6 0 1 13 21 20 30 33 41 32 37 52 56 59 67 61 60 57 57 60 47 33 24 15 13 17 13 14
19 16 10 8 5 8 9 11 11 10 17 15 20 23 14 11 3 10 13 11 12 11 23 7 18 65 38 50 71 70 67 60 59 62 52 35 30 22 17 18 16 17 18
16 9 5 6 7 8 10 11 10 15 20 18 16 14 11 3 4 10 18 19 21 15 16 23 27 30 42 58 67 63 60 61 64 59 41 34 28 25 19 16 17 20 22
9 10 12 8 12 10 14 14 17 21 23 18 14 10 8 4 4 5 3 6 15 12 10 9 27 32 40 55 61 59 70 74 63 46 39 34 31 20 20 18 21 25 24
8 14 11 5 9 10 12 14 16 20 15 31 33 29 12 8 3 11 8 10 3 3 10 16 23 25 28 42 66 82 80 60 47 46 38 34 27 24 21 21 23 25 25
9 10 7 6 7 10 8 5 14 17 18 21 18 34 29 18 10 10 9 16 14 9 8 17 23 17 59 56 58 69 65 55 46 42 38 31 26 20 20 23 26 28 27
7 8 10 9 8 7 8 16 13 9 16 16 30 23 15 21 18 14 10 12 12 13 17 22 18 48 70 62 65 54 53 47 43 39 34 29 23 23 25 27 28 29 27
6 7 9 8 8 6 8 10 9 9 14 14 27 25 10 10 19 15 15 7 14 15 20 19 23 64 58 80 60 48 44 42 41 37 31 28 28 29 30 33 29 30 26
5 4 8 8 5 5 8 8 2 3 9 11 21 24 8 7 10 12 19 18 21 28 27 28 62 63 56 56 52 41 36 34 32 30 30 31 31 35 34 33 30 29 27
4 3 9 9 7 6 9 10 5 6 4 9 19 18 11 7 15 22 14 32 34 45 40 52 57 54 47 42 40 39 34 31 27 27 28 31 36 33 30 33 29 32 25
8 4 4 7 9 6 8 12 11 7 4 1 8 10 7 8 7 18 32 26 33 38 46 42 37 36 40 39 38 33 28 24 23 23 24 33 28 34 31 33 31 28 28
11 10 10 8 14 12 12 14 18 12 9 10 7 3 6 11 5 19 32 38 31 38 39 42 42 40 39 36 34 29 26 23 23 23 23 26 28 32 27 35 32 30 30
14 14 15 17 12 16 19 18 18 18 19 14 14 13 12 13 9 19 33 41 44 34 40 40 39 37 36 37 34 31 28 26 23 23 26 27 28 29 28 30 32 34 33
21 20 19 21 21 18 23 22 25 22 22 23 21 27 23 20 21 24 37 40 46 31 46 42 37 40 38 36 34 33 30 27 28 28 27 29 30 31 33 35 36 36 35
21 23 22 20 21 23 28 26 26 27 29 29 29 28 25 21 22 30 41 46 53 34 43 50 50 48 45 43 40 37 34 32 32 31 33 34 36 37 37 38 39 40 41
20 21 20 21 21 19 17 24 27 27 30 31 32 29 29 28 25 26 36 39 61 54 44 46 54 45 47 47 43 41 40 37 38 39 41 43 44 43 43 44 45 46 46
24 24 24 24 26 26 28 29 31 32 34 33 33 31 31 33 33 31 34 38 42 51 53 51 55 59 50 47 48 48 49 49 49 49 51 51 50 51 50 50 51 55 53
26 29 30 31 32 31 32 35 38 40 40 41 43 39 36 37 36 37 40 43 48 53 56 53 43 47 58 59 55 53 53 53 55 58 56 55 56 58 59 60 60 62 62
29 29 35 39 41 41 40 41 41 45 48 48 51 46 45 45 45 45 44 46 51 56 61 66 65 60 52 54 60 60 62 60 60 62 65 64 63 64 63 65 65 68 67
31 34 36 39 44 48 49 48 50 48 46 54 57 58 55 54 54 54 54 56 53 54 58 65 73 69 70 66 73 67 70 73 71 71 70 72 72 72 70 70 70 70 69
31 32 36 39 41 44 49 51 56 61 61 59 56 57 63 60 60 59 60 64 61 65 69 71 73 81 82 78 79 83 80 79 78 79 75 75 74 76 74 73 71 70 70
38 35 34 37 42 47 50 55 58 63 69 71 69 66 61 59 66 66 68 70 73 74 73 74 81 85 84 82 77 83 87 88 88 85 79 78 76 77 70 72 73 73 70
45 44 43 41 40 40 45 55 61 66 68 72 76 74 73 69 73 67 76 74 77 80 82 85 89 92 91 88 89 89 82 81 84 85 87 89 85 87 79 80 80 75 74
56 53 50 47 47 44 44 44 52 62 68 73 73 74 75 75 77 77 74 79 87 84 84 85 85 90 93 96 99 93 90 90 92 96 92 91 90 90 89 85 88 85 80
58 58 55 58 59 52 48 48 47 50 56 65 72 77 79 78 77 77 76 79 84 88 84 88 87 94 95 92 95 97 98 105 105 101 101 99 97 92 91 97 86 86 87
Wind_Direction_850mb
324 334 335 352 341 352 357 6 5 7 354 348 356 348 355 294 245 222 214 228 238 240 260 236 235 240 189 194 197 191 193 181 178 173 176 186 177 174 174 178 180 184 174
323 330 336 344 357 11 13 26 2 358 13 29 41 56 16 355 345 240 242 231 227 223 237 256 224 225 198 220 218 198 195 182 177 175 180 183 169 175 182 182 178 177 197
325 337 345 4 40 19 21 37 359 41 33 38 49 34 45 358 352 115 114 111 147 182 212 183 248 225 204 201 191 188 191 177 177 181 185 177 181 180 195 185 194 190 186
339 4 34 83 53 56 68 49 51 51 38 23 42 49 39 43 38 119 133 114 129 150 219 232 280 202 194 191 187 183 171 177 180 184 181 183 181 201 193 199 198 189 173
8 77 105 93 79 80 70 72 65 51 40 11 11 359 3 109 126 130 169 47 131 126 146 249 219 204 207 213 191 195 174 174 179 174 185 185 198 201 212 203 193 173 165
91 101 105 90 105 106 78 59 76 79 53 33 30 31 43 57 129 174 161 113 143 211 189 192 223 223 229 208 212 165 169 163 182 187 184 196 201 199 202 198 181 176 170
104 111 93 121 106 119 98 81 88 80 42 7 344 20 51 57 74 115 139 132 135 141 163 191 220 235 150 153 155 162 161 169 182 184 194 196 194 199 194 186 175 168 166
120 116 123 124 115 106 78 107 100 62 23 16 2 20 27 51 81 80 105 141 129 98 94 136 103 155 131 150 153 151 161 175 180 188 188 195 190 195 186 173 173 167 169
117 140 159 142 156 138 130 127 112 66 22 16 9 20 354 44 58 82 79 102 110 127 114 146 117 143 133 148 154 157 171 177 180 185 189 188 187 176 172 169 173 167 175
154 184 182 162 148 168 166 199 224 17 50 25 22 11 55 76 92 75 108 101 155 139 123 141 138 137 148 145 154 170 180 172 176 183 184 182 177 171 174 176 179 176 187
199 31 198 192 192 217 211 213 233 232 110 29 27 40 73 38 122 131 100 116 115 145 144 132 137 141 151 158 167 167 170 169 175 180 180 179 176 180 178 180 186 190 192
220 296 316 222 215 229 222 209 205 214 279 216 29 47 66 25 240 169 143 132 144 129 133 139 147 156 156 157 164 163 165 170 175 180 186 187 186 184 192 193 193 201 201
248 269 295 279 235 232 232 218 214 233 263 257 293 246 286 303 285 204 161 153 150 148 157 164 165 168 163 163 166 171 174 176 182 187 193 198 202 203 202 206 209 208 218
256 264 276 284 269 238 241 230 227 231 238 244 277 263 266 266 256 213 203 176 169 172 174 179 178 178 176 175 180 181 187 190 196 205 210 214 219 221 225 228 228 227 233
267 261 264 274 275 248 242 247 241 243 244 250 267 275 271 258 229 226 223 217 192 183 194 196 196 195 191 193 196 201 204 211 214 220 226 228 230 231 233 235 237 241 243
283 286 272 269 279 268 249 245 251 254 251 255 260 264 259 252 240 227 227 224 213 216 203 205 206 204 205 209 211 220 221 227 232 234 239 240 240 239 239 241 244 246 249
290 288 282 271 276 273 277 260 258 260 260 261 265 264 252 252 246 226 228 231 223 214 223 222 218 216 219 222 225 232 238 242 244 247 247 246 246 247 246 247 249 250 253
283 276 274 277 269 266 266 265 265 269 268 270 269 270 264 253 250 238 223 227 232 229 230 243 244 235 224 235 237 242 249 248 249 250 252 252 252 253 254 255 256 257 256
275 273 268 267 267 266 266 269 270 268 265 267 271 270 269 259 251 245 239 228 229 240 244 241 237 237 239 240 239 243 248 250 252 254 255 254 257 258 258 257 257 259 259
282 272 271 269 268 267 268 267 271 269 270 266 267 265 262 263 262 252 250 243 241 239 241 241 241 244 239 237 241 247 251 255 260 260 262 262 261 263 263 263 262 263 263
288 281 275 268 268 268 268 269 266 270 270 268 266 268 265 260 260 262 258 252 249 246 244 242 241 240 240 244 243 251 256 257 261 263 264 264 263 263 264 266 265 265 266
309 294 286 280 271 268 268 268 269 269 266 269 270 266 262 263 262 260 257 260 256 252 252 252 249 247 249 253 255 258 256 259 262 266 270 268 269 268 268 268 268 268 268
339 329 313 299 287 277 268 263 264 266 266 264 265 266 269 267 259 261 261 258 258 257 255 256 255 254 255 256 259 260 258 260 263 266 267 268 272 273 270 268 267 264 264
340 338 334 329 319 305 289 276 267 264 266 266 265 265 264 266 264 264 258 263 258 257 257 255 256 257 257 259 260 263 266 266 266 267 267 266 270 268 270 267 266 264 263
341 336 332 327 326 323 317 303 286 274 268 266 267 266 265 265 264 265 267 265 265 262 257 260 261 258 261 262 263 261 260 261 263 264 264 263 267 271 271 270 263 265 266
329 330 331 327 319 316 317 315 315 300 285 275 270 268 267 266 264 264 266 268 270 266 267 263 261 256 258 258 257 260 260 259 258 263 259 259 266 266 268 270 271 267 268